Flag for Germany Past Weather in Krefeld, North Rhine-Westphalia, Germany — Yesterday and Last 2 Weeks

Now
68 °F

Passing clouds.


Feels Like: 68 °F
Forecast: 55 / 72 °F
Wind: 3 mph from West

Location: Duesseldorf

Current Time: May 30, 2017 at 7:41:18 am

Latest Report: May 30, 2017 at 7:20 am


Visibility: N/A

Pressure: 29.92 "Hg

Humidity: 83%

Dew Point: 63 °F

Location of KrefeldLocation

Past Weather in Krefeld — Graph

°F

Krefeld Temperature Yesterday

Maximum temperature yesterday: 91 °F (at 2:20 pm)
Minimum temperature yesterday: 64 °F (at 2:50 am)
Average temperature yesterday: 79 °F

High & Low Weather Summary for the Past Weeks

 TemperatureHumidityPressure
High91 °F (May 29, 2:20 pm)100% (May 18, 9:50 pm)30.42 "Hg (May 18, 9:50 pm)
Low46 °F (May 15, 6:50 am)23% (May 15, 7:20 pm)29.77 "Hg (May 19, 12:50 am)
Average67 °F62%30.10 "Hg
* Reported May 15 6:20 am — May 30 6:20 am, Krefeld. Weather by CustomWeather, © 2017

Note: Actual official high and low records may vary slightly from our data, if they occured in-between our weather recording intervals... More about our weather records

Advertising

Krefeld Weather History for the Previous 24 Hours

Scroll right to see more
 ConditionsComfort  
Time TempWeatherWind HumidityBarometerVisibility
6:20 am
Tue, May 30
64 °FFog.1 mph94%29.92 "HgN/A
5:50 am66 °FFog.2 mph88%29.92 "HgN/A
5:20 am66 °FFog.5 mph88%29.89 "HgN/A
4:50 am66 °FFog.3 mph94%29.89 "HgN/A
4:20 am66 °FFog.6 mph94%29.89 "HgN/A
3:50 am66 °FFog.5 mph94%29.89 "HgN/A
2:50 am68 °FThundershowers. Passing clouds.3 mph94%29.89 "HgN/A
2:20 am72 °FStrong thunderstorms. Passing clouds.5 mph73%29.86 "HgN/A
1:50 am72 °FPassing clouds.5 mph78%29.86 "HgN/A
1:20 am72 °FClear.5 mph78%29.86 "Hg10 mi
12:50 am73 °FClear.5 mph74%29.89 "Hg10 mi
12:20 am75 °FClear.7 mph69%29.89 "Hg10 mi
11:50 pm
Mon, May 29
75 °FPassing clouds.6 mph69%29.86 "HgN/A
11:20 pm75 °FClear.7 mph74%29.86 "Hg10 mi
10:50 pm77 °FClear.6 mph69%29.86 "Hg10 mi
10:20 pm77 °FPartly cloudy.2 mph69%29.86 "HgN/A
9:50 pm79 °FPassing clouds.6 mph65%29.83 "HgN/A
9:20 pm81 °FScattered showers. Broken clouds.3 mph62%29.83 "HgN/A
8:50 pm82 °FSprinkles. Partly sunny.9 mph58%29.83 "HgN/A
8:20 pm84 °FScattered showers. Scattered clouds.10 mph51%29.83 "HgN/A
7:50 pm86 °FScattered clouds.6 mph43%29.83 "HgN/A
7:20 pm88 °FScattered clouds.5 mph38%29.80 "HgN/A
6:50 pm90 °FScattered clouds.7 mph36%29.80 "HgN/A
6:20 pm91 °FPassing clouds.6 mph30%29.80 "HgN/A
5:50 pm91 °FPassing clouds.9 mph30%29.80 "HgN/A
5:20 pm91 °FPassing clouds.9 mph28%29.83 "HgN/A
4:50 pm91 °FPassing clouds.12 mph26%29.83 "HgN/A
4:20 pm91 °FSunny.14 mph28%29.83 "Hg10 mi
3:50 pm90 °FSunny.7 mph31%29.83 "Hg10 mi
3:20 pm91 °FSunny.8 mph32%29.83 "Hg10 mi
2:50 pm91 °FPassing clouds.13 mph30%29.83 "HgN/A
2:20 pm91 °FPassing clouds.13 mph34%29.83 "HgN/A
1:50 pm90 °FPassing clouds.14 mph36%29.86 "HgN/A
1:20 pm90 °FPassing clouds.13 mph36%29.86 "HgN/A
12:50 pm90 °FPassing clouds.13 mph36%29.86 "HgN/A
12:20 pm86 °FPassing clouds.9 mph43%29.86 "HgN/A
11:50 am86 °FPassing clouds.8 mph43%29.86 "HgN/A
11:20 am84 °FPassing clouds.8 mph45%29.89 "HgN/A
10:50 am82 °FPassing clouds.6 mph55%29.89 "HgN/A
10:20 am81 °FPassing clouds.6 mph58%29.89 "HgN/A
9:50 am79 °FPassing clouds.6 mph58%29.92 "HgN/A
9:20 am77 °FPassing clouds.7 mph61%29.92 "HgN/A
8:50 am75 °FPassing clouds.7 mph65%29.92 "HgN/A
8:20 am73 °FPassing clouds.6 mph69%29.92 "HgN/A
7:50 am72 °FPassing clouds.3 mph78%29.92 "HgN/A
7:20 am68 °FPassing clouds.5 mph88%29.92 "HgN/A
Weather by CustomWeather, © 2017

See weather overviewHow to use our weather pages